GW5858 Weather Reports


Display with metric or nautical units.
time (UTC)temp
F
wind
direction
speed
MPH
gust
MPH
rain 1hr
in
rain 24hr
in
rain mn
in
humidity
%
barometer
mb
20260901054519 69 287 0.0 0.0 0.00 0.64 0.00 95 1015.2
20260901053014 69 287 0.0 0.0 0.00 0.64 0.00 95 1015.3
20260901051512 69 287 0.0 2.0 0.00 0.65 0.00 95 1015.2
20260901050028 69 287 0.0 2.0 0.00 0.65 0.00 95 1015.5
20260901044528 69 287 0.0 2.0 0.01 0.66 0.00 95 1015.6
20260901043028 69 287 0.0 0.0 0.01 0.66 0.00 95 1016.1
20260901041524 69 287 0.0 0.0 0.01 0.66 0.00 95 1016.2
20260901040019 69 287 0.0 0.0 0.01 0.66 0.00 95 1016.1
20260901034527 69 287 0.0 0.0 0.00 0.65 0.65 95 1016.1
20260901033011 69 287 0.0 0.0 0.00 0.65 0.65 95 1016.2
20260901031505 69 287 0.0 0.0 0.00 0.66 0.65 95 1016.2
20260901030027 69 287 0.0 0.0 0.00 0.66 0.65 95 1016.4
20260901024531 69 287 0.0 0.0 0.00 0.68 0.65 95 1016.6
20260901023028 70 287 0.0 0.0 0.00 0.69 0.65 94 1017.0
20260901021520 70 287 0.0 0.0 0.00 0.73 0.65 95 1016.8
20260901020027 70 287 0.0 0.0 0.00 0.75 0.65 94 1016.9
20260901014516 70 287 0.0 0.0 0.00 0.80 0.65 94 1017.0
20260901013023 70 287 0.0 0.0 0.00 0.80 0.65 94 1017.1
20260901011531 70 287 0.0 0.0 0.00 0.80 0.65 94 1017.1
20260901010033 70 287 0.0 0.0 0.00 0.80 0.65 94 1017.0
20260901004532 70 287 0.0 0.0 0.00 0.80 0.65 94 1016.9
20260901003029 71 287 0.0 0.0 0.00 0.80 0.65 94 1017.0
20260901001530 71 287 0.0 0.0 0.00 0.80 0.65 93 1017.0
20260901000015 71 287 0.0 0.0 0.00 0.80 0.65 93 1016.8
20260831234511 71 287 0.0 0.0 0.00 0.80 0.65 93 1016.8
20260831233030 71 284 0.0 2.0 0.00 0.80 0.65 93 1016.6
20260831231503 72 284 0.0 1.0 0.00 0.80 0.65 92 1016.6
20260831230009 72 284 1.0 3.0 0.00 0.80 0.65 91 1016.8
20260831224507 73 270 0.0 0.0 0.00 0.80 0.65 91 1017.0
20260831223006 73 270 0.0 2.0 0.00 0.80 0.65 92 1017.0
20260831221514 73 271 0.0 5.0 0.00 0.80 0.65 92 1017.1
20260831220010 73 297 1.0 8.0 0.00 0.80 0.65 91 1017.1
20260831214506 73 5 1.0 9.0 0.00 0.80 0.65 91 1017.4
20260831213011 73 350 3.0 11.0 0.00 0.80 0.65 91 1017.2
20260831211505 73 300 1.0 4.0 0.00 0.80 0.65 92 1017.2
20260831210006 73 329 3.0 10.0 0.01 0.80 0.65 93 1017.1
20260831204504 73 302 1.0 7.0 0.01 0.80 0.65 92 1016.9
20260831203006 73 285 1.0 4.0 0.03 0.80 0.65 93 1016.8
20260831201504 72 265 0.0 2.0 0.05 0.80 0.65 93 1016.8
20260831200006 72 307 0.0 2.0 0.04 0.79 0.64 93 1017.1
20260831194507 72 292 0.0 2.0 0.04 0.79 0.64 93 1017.3
20260831193028 72 284 0.0 1.0 0.05 0.77 0.62 93 1017.5
20260831191538 72 282 0.0 2.0 0.06 0.75 0.60 93 1017.5
20260831190023 71 251 0.0 2.0 0.06 0.75 0.60 93 1017.7
20260831184520 71 251 0.0 3.0 0.06 0.75 0.60 92 1017.7
20260831183015 71 259 1.0 4.0 0.03 0.72 0.57 91 1018.0
20260831181510 72 292 0.0 0.0 0.00 0.69 0.54 90 1018.0
20260831180009 73 290 0.0 4.0 0.00 0.69 0.54 89 1018.1
20260831174532 73 265 0.0 2.0 0.00 0.69 0.54 89 1018.1
20260831173027 73 346 0.0 2.0 0.00 0.69 0.54 89 1018.0
20260831171524 73 259 1.0 2.0 0.00 0.69 0.54 90 1018.0
20260831170025 72 247 0.0 5.0 0.00 0.69 0.54 91 1018.2
20260831164523 71 286 0.0 3.0 0.00 0.69 0.54 93 1018.3
20260831163012 69 209 0.0 2.0 0.00 0.69 0.54 95 1018.2
20260831161508 68 190 0.0 2.0 0.00 0.69 0.54 95 1018.4
20260831160036 68 186 0.0 0.0 0.02 0.69 0.54 95 1018.8
20260831154555 68 186 0.0 2.0 0.05 0.70 0.54 1018.9
20260831153025 68 186 0.0 1.0 0.10 0.73 0.54 1018.9
20260831151524 67 187 0.0 2.0 0.19 0.75 0.54 95 1019.0
20260831150018 67 187 0.0 1.0 0.24 0.73 0.52 95 1018.8
20260831144512 66 187 0.0 1.0 0.25 0.70 0.49 95 1018.7
20260831143032 66 187 0.0 0.0 0.25 0.65 0.44 95 1018.8
20260831141507 66 189 0.0 0.0 0.19 0.56 0.35 95 1018.9
20260831140012 66 189 0.0 0.0 0.15 0.49 0.28 95 1018.9
20260831134506 66 189 0.0 0.0 0.12 0.45 0.24 95 1018.9
20260831133021 66 189 0.0 0.0 0.07 0.40 0.19 95 1019.1
20260831131508 67 189 0.0 0.0 0.04 0.37 0.16 95 1019.2
20260831130010 66 189 0.0 0.0 0.02 0.34 0.13 95 1018.9
20260831124530 66 189 0.0 0.0 0.02 0.33 0.12 95 1018.5
20260831123007 66 189 0.0 0.0 0.02 0.33 0.12 95 1018.5
20260831121505 66 189 0.0 2.0 0.02 0.33 0.12 95 1018.6
20260831120029 66 290 0.0 0.0 0.01 0.32 0.11 95 1018.9
20260831114513 65 290 0.0 0.0 0.00 0.32 0.10 95 1018.9
20260831113010 65 290 0.0 0.0 0.00 0.32 0.10 95 1018.9
20260831111509 65 290 0.0 0.0 0.00 0.32 0.10 95 1019.0
20260831110008 65 290 0.0 0.0 0.00 0.32 0.10 95 1019.0
20260831104548 66 290 0.0 0.0 0.00 0.32 0.10 95 1019.1
20260831103012 65 290 0.0 0.0 0.00 0.32 0.10 95 1019.1
20260831101505 65 290 0.0 0.0 0.00 0.32 0.10 95 1019.0
20260831100007 65 290 0.0 0.0 0.00 0.32 0.10 95 1019.1
20260831094510 65 290 0.0 0.0 0.00 0.32 0.10 95 1019.0
20260831093009 65 290 0.0 0.0 0.00 0.32 0.10 95 1018.9
20260831091505 65 290 0.0 0.0 0.00 0.32 0.10 95 1019.0
20260831090007 66 290 0.0 0.0 0.00 0.32 0.10 95 1019.1
20260831084511 65 290 0.0 0.0 0.02 0.32 0.10 95 1019.2
20260831083013 66 290 0.0 0.0 0.02 0.32 0.10 95 1019.5
20260831081532 66 290 0.0 0.0 0.03 0.32 0.10 95 1019.3
20260831080026 66 290 0.0 2.0 0.06 0.32 0.10 95 1019.5
20260831074537 66 279 0.0 0.0 0.06 0.30 0.08 95 1019.7
20260831073014 66 280 0.0 1.0 0.06 0.30 0.08 95 1019.7
20260831071525 66 280 0.0 0.0 0.05 0.29 0.07 95 1019.9
20260831070037 66 280 0.0 0.0 0.02 0.26 0.04 95 1019.8
20260831064535 66 280 0.0 0.0 0.00 0.24 0.02 95 1019.9
20260831063028 66 280 0.0 0.0 0.00 0.24 0.02 95 1019.9
20260831061522 66 280 0.0 0.0 0.01 0.24 0.02 95 1020.2
20260831060031 66 280 0.0 0.0 0.01 0.24 0.02 95 1020.2